Location: *
(37.9500°N, 27.3666°E)
Time: 05:45:19
(UTC+00:00)

Cosmos 614 Rocket - Pass Details

Date: 02 June 2022
Orbit: 732 x 764 km, 74.1° (Epoch: 03 July)

Event Time Altitude Azimuth Distance (km) Brightness Sun altitude
Rises 23:37:25 0° 336° (NNW) 3,224 7.8 -26.3°
Reaches altitude 10° 23:39:50 10° 331° (NNW) 2,298 6.9 -26.1°
Enters shadow 23:44:09 47° 285° (WNW) 999 4.4 -25.7°
